Minangkabau Airport

Jump to: basic info | weather | frequencies | runways | comments

Related pages: nearby airports | nearby navaids | notams | map

Basic information (top)

Codes: PDG WIPT
Location: lon -0.786917, lat 100.280998, elev 18 ft / 5 m msl
Status: medium_airport
Scheduled airline service: yes
Links: Wikipedia Mobile

Weather (top)

Current conditions (rec'd 2014/04/24 05:00Z):

WIPT 240500Z 27006KT 220V300 9999 SCT020 31/22 Q1009

Airport forecast for Sultan Syarif Kasim Ii (Simpang Tiga) Airport 102nm (190km) NE (rec'd 2014/04/23 00:51Z):

TAF TAF WIBB 232300Z 2400/2424 VRB05KT 8000 SCT015 
      TEMPO 2408/2411 35007KT 5000 -TSRA SCT013 SCT015CB

Frequencies (top)

Verify before use: may be inaccurate or out of date.

APP: 124 MHz (PADANG APP)
ATIS: 127.25 MHz (ATIS)
TWR: 118.3 MHz (MINANG TWR)

Runways (top)

15/33: 9,020 x 148 ft (2,749 x 45 m) — paved — lighted

Latest comments (top)

No comments yet for Minangkabau Airport

More... (top)

See also NOTAMs and nearby airports and navaids, or visit the Minangkabau Airport page at the main OurAirports website..